Golden Triangle, MS

8:05 PM CDT on April 25, 2017 (GMT -0500)
Golden Triangle Regional

Weather History for KGTR - October, 2012

Change the Weather History Date:

Sunday, October 14, 2012

  Actual Average Record
Temperature  
Mean Temperature 70 °F -  
Max Temperature 77 °F 74 °F 87 °F (2015)
Min Temperature 64 °F 50 °F 41 °F (2006)
Cooling Degree Days 6    
Growing Degree Days 20 (Base 50)    
Moisture  
Dew Point 66 °F    
Average Humidity 86    
Maximum Humidity 94    
Minimum Humidity 69    
Precipitation  
Precipitation 0.04 in - - ()
Sea Level Pressure  
Sea Level Pressure 30.04 in    
Wind  
Wind Speed 9 mph (South)    
Max Wind Speed 21 mph    
Max Gust Speed 34 mph    
Visibility 9 miles    
Events Rain    
Averages and records for this station are not official NWS values.
T = Trace of Precipitation, MM = Missing Value Source: NWS Daily Summary

Daily Weather History Graph

Daily Weather History Graph

Search for Another Location

Airport or City:

Trip Planner

Search our weather history database for the weather conditions in past years. The results will help you decide how hot, cold, wet, or windy it might be!

Date:

Astronomy

Oct. 14, 2012 Rise Set
Actual Time 6:58 AM CDT 6:21 PM CDT
Civil Twilight 6:33 AM CDT 6:46 PM CDT
Nautical Twilight 6:04 AM CDT 7:15 PM CDT
Astronomical Twilight 5:35 AM CDT 7:43 PM CDT
Moon 5:58 AM CDT (10/14) 5:41 PM CDT (10/14)
Length of Visible Light 12h 12m
Length of Day
11h 22m
Waning Crescent, 1% of the Moon is Illuminated
Oct 14
Waning Crescent
Oct 15
New
Oct 21
First Quarter
Oct 29
Full
Nov 6
Last Quarter

Hourly Weather History & Observations

Time (CDT) Temp. Dew Point Humidity Pressure Visibility Wind Dir Wind Speed Gust Speed Precip Events Conditions
12:15 AM 69.8 °F 64.4 °F 83% 30.09 in 10.0 mi SSE 9.2 mph - N/A   Clear
12:35 AM 69.8 °F 64.4 °F 83% 30.09 in 10.0 mi SE 8.1 mph - N/A   Clear
12:55 AM 68.0 °F 62.6 °F 83% 30.09 in 10.0 mi SSE 8.1 mph - N/A   Clear
1:15 AM 68.0 °F 64.4 °F 88% 30.09 in 10.0 mi SSE 9.2 mph - N/A   Clear
1:35 AM 68.0 °F 64.4 °F 88% 30.10 in 10.0 mi SSE 10.4 mph - N/A   Clear
1:55 AM 68.0 °F 64.4 °F 88% 30.09 in 10.0 mi SSE 10.4 mph - N/A   Clear
2:35 AM 68.0 °F 64.4 °F 88% 30.08 in 10.0 mi SSE 11.5 mph - N/A   Clear
2:55 AM 68.0 °F 64.4 °F 88% 30.07 in 10.0 mi SSE 11.5 mph - N/A   Mostly Cloudy
3:15 AM 68.0 °F 64.4 °F 88% 30.05 in 10.0 mi SSE 13.8 mph 19.6 mph N/A   Partly Cloudy
3:35 AM 68.0 °F 64.4 °F 88% 30.05 in 10.0 mi South 13.8 mph 19.6 mph N/A   Clear
3:55 AM 68.0 °F 64.4 °F 88% 30.05 in 10.0 mi South 13.8 mph - N/A   Clear
4:15 AM 68.0 °F 64.4 °F 88% 30.05 in 10.0 mi South 13.8 mph - N/A   Clear
4:35 AM 69.8 °F 66.2 °F 88% 30.05 in 10.0 mi South 13.8 mph 21.9 mph N/A   Mostly Cloudy
4:55 AM 69.8 °F 66.2 °F 88% 30.05 in 8.0 mi South 13.8 mph 21.9 mph N/A   Overcast
5:15 AM 69.8 °F 66.2 °F 88% 30.06 in 8.0 mi South 11.5 mph - N/A   Overcast
5:35 AM 69.8 °F 66.2 °F 88% 30.09 in 8.0 mi South 8.1 mph - N/A   Overcast
5:50 AM 69.8 °F 66.2 °F 88% 30.09 in 5.0 mi SSW 6.9 mph - N/A   Overcast
6:45 AM 66.2 °F 64.4 °F 94% 30.10 in 3.0 mi South 6.9 mph - N/A   Scattered Clouds
7:50 AM 68.0 °F 64.4 °F 88% 30.14 in 3.0 mi South 6.9 mph - N/A   Overcast
8:50 AM 69.8 °F 66.2 °F 88% 30.15 in 5.0 mi South 6.9 mph - N/A   Mostly Cloudy
9:50 AM 73.4 °F 66.2 °F 78% 30.14 in 7.0 mi South 11.5 mph 18.4 mph N/A   Mostly Cloudy
10:45 AM 75.2 °F 68.0 °F 78% 30.12 in 7.0 mi South 16.1 mph 23.0 mph N/A   Mostly Cloudy
11:35 AM 75.2 °F 64.4 °F 69% 30.14 in 1.0 mi West 20.7 mph 34.5 mph N/A Rain Heavy Rain
11:50 AM 64.4 °F 60.8 °F 88% 30.11 in 7.0 mi SSW 11.5 mph 18.4 mph N/A   Overcast
12:45 PM 66.2 °F 62.6 °F 88% 30.06 in 7.0 mi South 15.0 mph 20.7 mph N/A   Overcast
1:45 PM 69.8 °F 64.4 °F 83% 30.01 in 10.0 mi SSW 12.7 mph 17.3 mph N/A   Scattered Clouds
3:45 PM 77.0 °F 68.0 °F 74% 29.98 in 10.0 mi South 8.1 mph - N/A   Mostly Cloudy
4:50 PM 77.0 °F 69.8 °F 78% 29.97 in 10.0 mi South 6.9 mph - N/A   Scattered Clouds
5:45 PM 77.0 °F 69.8 °F 78% 29.96 in 10.0 mi South 4.6 mph - N/A   Mostly Cloudy
6:45 PM 73.4 °F 69.8 °F 88% 29.94 in 10.0 mi South 8.1 mph - N/A   Mostly Cloudy
7:45 PM 73.4 °F 68.0 °F 83% 29.95 in 10.0 mi South 9.2 mph - N/A   Mostly Cloudy
8:15 PM 73.4 °F 68.0 °F 83% 29.96 in 10.0 mi SSW 8.1 mph - N/A   Scattered Clouds
8:35 PM 71.6 °F 68.0 °F 88% 29.96 in 10.0 mi SSW 5.8 mph - N/A   Partly Cloudy
8:55 PM 71.6 °F 66.2 °F 83% 29.97 in 10.0 mi SSW 4.6 mph - N/A   Partly Cloudy
9:15 PM 73.4 °F 68.0 °F 83% 29.96 in 10.0 mi SSW 3.5 mph - N/A   Partly Cloudy
9:35 PM 71.6 °F 68.0 °F 88% 29.96 in 10.0 mi Calm Calm - N/A   Clear
9:55 PM 71.6 °F 68.0 °F 88% 29.97 in 10.0 mi SSW 3.5 mph - N/A   Mostly Cloudy
10:15 PM 71.6 °F 66.2 °F 83% 29.96 in 10.0 mi SSW 5.8 mph - N/A   Scattered Clouds
10:35 PM 71.6 °F 66.2 °F 83% 29.97 in 10.0 mi NNW 11.5 mph 16.1 mph 0.01 in   Mostly Cloudy
10:55 PM 68.0 °F 64.4 °F 88% 29.98 in 10.0 mi West 3.5 mph - 0.03 in   Mostly Cloudy
11:15 PM 66.2 °F 64.4 °F 94% 29.96 in 10.0 mi Calm Calm - 0.01 in   Overcast
11:35 PM 66.2 °F 64.4 °F 94% 29.96 in 10.0 mi WNW 3.5 mph - 0.01 in   Mostly Cloudy
11:55 PM 66.2 °F 64.4 °F 94% 29.96 in 10.0 mi Calm Calm - 0.01 in   Mostly Cloudy